| time (UTC) | temp C | wind direction | speed KPH | gust KPH | rain 1hr cm | rain 24hr cm | rain mn cm | humidity % | barometer mb |
| 20260508044730 | -17 | 274 | 0.0 | 0.0 | 0.00 | 0.05 | 0.00 | 1014.7 | |
| 20260508044528 | -17 | 274 | 0.0 | 0.0 | 0.00 | 0.05 | 0.00 | 1014.6 | |
| 20260508044126 | -17 | 274 | 0.0 | 0.0 | 0.00 | 0.08 | 0.00 | 1014.7 | |
| 20260508043927 | -17 | 274 | 0.0 | 0.0 | 0.00 | 0.10 | 0.00 | 1014.7 | |
| 20260508043725 | -17 | 274 | 0.0 | 0.0 | 0.00 | 0.10 | 0.00 | 1014.7 | |
| 20260508043523 | -17 | 274 | 0.0 | 0.0 | 0.00 | 0.10 | 0.00 | 1014.7 | |
| 20260508043322 | -17 | 274 | 0.0 | 0.0 | 0.00 | 0.10 | 0.00 | 1014.6 | |
| 20260508043121 | -17 | 274 | 0.0 | 1.6 | 0.00 | 0.10 | 0.00 | 1014.5 | |
| 20260508042921 | -17 | 274 | 0.0 | 1.6 | 0.00 | 0.13 | 0.00 | 1014.5 | |
| 20260508042518 | -17 | 274 | 0.0 | 1.6 | 0.00 | 0.13 | 0.00 | 1014.4 | |
| 20260508042314 | -17 | 274 | 0.0 | 1.6 | 0.00 | 0.13 | 0.00 | 1014.5 | |
| 20260508042113 | -17 | 274 | 0.0 | 0.0 | 0.00 | 0.13 | 0.00 | 1014.5 | |
| 20260508041709 | -17 | 274 | 0.0 | 0.0 | 0.00 | 0.18 | 0.00 | 1014.5 | |
| 20260508041507 | -17 | 274 | 0.0 | 0.0 | 0.00 | 0.20 | 0.00 | 1014.5 | |
| 20260508041305 | -17 | 274 | 0.0 | 0.0 | 0.00 | 0.20 | 0.00 | 1014.5 | |
| 20260508041104 | -17 | 274 | 0.0 | 0.0 | 0.00 | 0.20 | 0.00 | 1014.4 | |
| 20260508040901 | -17 | 274 | 0.0 | 0.0 | 0.00 | 0.23 | 0.00 | 1014.4 | |
| 20260508040701 | -17 | 274 | 0.0 | 0.0 | 0.00 | 0.23 | 0.00 | 1014.4 | |
| 20260508040259 | -17 | 274 | 0.0 | 0.0 | 0.00 | 0.25 | 0.00 | 1014.3 | |
| 20260508040056 | -17 | 274 | 0.0 | 0.0 | 0.00 | 0.25 | 0.00 | 1014.3 | |
| 20260508035852 | -17 | 274 | 0.0 | 0.0 | 0.00 | 0.25 | 0.25 | 1014.3 | |
| 20260508035245 | -17 | 274 | 0.0 | 0.0 | 0.00 | 0.25 | 0.25 | 1014.2 | |
| 20260508035043 | -17 | 274 | 0.0 | 0.0 | 0.00 | 0.25 | 0.25 | 1014.1 | |
| 20260508034846 | -17 | 274 | 0.0 | 0.0 | 0.00 | 0.25 | 0.25 | 1014.1 | |
| 20260508034641 | -17 | 274 | 0.0 | 0.0 | 0.00 | 0.25 | 0.25 | 1014.1 | |
| 20260508034443 | -17 | 274 | 0.0 | 0.0 | 0.00 | 0.25 | 0.25 | 1014.1 | |
| 20260508034241 | -17 | 274 | 0.0 | 0.0 | 0.00 | 0.28 | 0.25 | 1014.1 | |
| 20260508034042 | -17 | 274 | 0.0 | 0.0 | 0.00 | 0.28 | 0.25 | 1014.1 | |
| 20260508033839 | -17 | 274 | 0.0 | 1.6 | 0.00 | 0.28 | 0.25 | 1014.1 | |
| 20260508033642 | -17 | 274 | 0.0 | 1.6 | 0.00 | 0.28 | 0.25 | 1014.1 | |
| 20260508033439 | -17 | 274 | 0.0 | 1.6 | 0.00 | 0.28 | 0.25 | 1014.1 | |
| 20260508033038 | -17 | 273 | 0.0 | 1.6 | 0.00 | 0.28 | 0.25 | 1014.1 | |
| 20260508032839 | -17 | 274 | 0.0 | 1.6 | 0.00 | 0.30 | 0.25 | 1014.1 | |
| 20260508032637 | -17 | 274 | 0.0 | 1.6 | 0.00 | 0.30 | 0.25 | 1014.1 | |
| 20260508032437 | -17 | 274 | 0.0 | 0.0 | 0.00 | 0.30 | 0.25 | 1014.1 | |
| 20260508032238 | -17 | 274 | 0.0 | 1.6 | 0.00 | 0.30 | 0.25 | 1014.0 | |
| 20260508032038 | -17 | 274 | 0.0 | 1.6 | 0.00 | 0.30 | 0.25 | 1013.8 | |
| 20260508031835 | -17 | 274 | 0.0 | 1.6 | 0.00 | 0.30 | 0.25 | 1013.8 | |
| 20260508031636 | -17 | 273 | 0.0 | 1.6 | 0.00 | 0.30 | 0.25 | 1014.0 | |
| 20260508031437 | -17 | 274 | 0.0 | 1.6 | 0.00 | 0.30 | 0.25 | 1014.0 | |
| 20260508031234 | -17 | 274 | 0.0 | 1.6 | 0.00 | 0.30 | 0.25 | 1014.0 | |
| 20260508031035 | -17 | 274 | 0.0 | 1.6 | 0.00 | 0.30 | 0.25 | 1014.0 | |
| 20260508030835 | -17 | 274 | 0.0 | 0.0 | 0.00 | 0.30 | 0.25 | 1014.0 | |
| 20260508030236 | -17 | 274 | 0.0 | 0.0 | 0.00 | 0.33 | 0.25 | 1014.1 | |
| 20260508030033 | -17 | 274 | 0.0 | 0.0 | 0.00 | 0.33 | 0.25 | 1014.1 | |
| 20260508025833 | -17 | 274 | 0.0 | 0.0 | 0.00 | 0.33 | 0.25 | 1014.2 | |
| 20260508025632 | -17 | 274 | 0.0 | 0.0 | 0.00 | 0.33 | 0.25 | 1014.1 | |
| 20260508025233 | -17 | 274 | 0.0 | 0.0 | 0.00 | 0.33 | 0.25 | 1014.0 | |
| 20260508025027 | -17 | 274 | 0.0 | 0.0 | 0.00 | 0.33 | 0.25 | 1014.0 | |
| 20260508024827 | -17 | 274 | 0.0 | 0.0 | 0.00 | 0.33 | 0.25 | 1014.0 | |
| 20260508024426 | -17 | 274 | 0.0 | 0.0 | 0.00 | 0.33 | 0.25 | 1013.9 | |
| 20260508024227 | -17 | 274 | 0.0 | 0.0 | 0.00 | 0.33 | 0.25 | 1013.8 | |
| 20260508023823 | -17 | 274 | 0.0 | 0.0 | 0.00 | 0.33 | 0.25 | 1013.8 | |
| 20260508023621 | -17 | 274 | 0.0 | 0.0 | 0.00 | 0.33 | 0.25 | 1013.8 | |
| 20260508023218 | -17 | 274 | 0.0 | 0.0 | 0.00 | 0.33 | 0.25 | 1013.7 | |
| 20260508023016 | -17 | 274 | 0.0 | 0.0 | 0.00 | 0.33 | 0.25 | 1013.6 | |
| 20260508022816 | -17 | 274 | 0.0 | 0.0 | 0.00 | 0.33 | 0.25 | 1013.7 | |
| 20260508022613 | -17 | 274 | 0.0 | 0.0 | 0.00 | 0.33 | 0.25 | 1013.7 | |
| 20260508022411 | -17 | 274 | 0.0 | 0.0 | 0.00 | 0.33 | 0.25 | 1013.6 | |
| 20260508022209 | -17 | 274 | 0.0 | 0.0 | 0.00 | 0.33 | 0.25 | 1013.6 | |
| 20260508022009 | -17 | 274 | 0.0 | 0.0 | 0.00 | 0.33 | 0.25 | 1013.7 | |
| 20260508021605 | -17 | 274 | 0.0 | 0.0 | 0.00 | 0.33 | 0.25 | 1013.6 | |
| 20260508021403 | -17 | 274 | 0.0 | 0.0 | 0.00 | 0.33 | 0.25 | 1013.7 | |
| 20260508021202 | -17 | 274 | 0.0 | 0.0 | 0.00 | 0.33 | 0.25 | 1013.6 | |
| 20260508021000 | -17 | 274 | 0.0 | 0.0 | 0.00 | 0.33 | 0.25 | 1013.7 | |
| 20260508020759 | -17 | 274 | 0.0 | 0.0 | 0.00 | 0.33 | 0.25 | 1013.6 | |
| 20260508020557 | -17 | 274 | 0.0 | 0.0 | 0.00 | 0.33 | 0.25 | 1013.5 | |
| 20260508020355 | -17 | 274 | 0.0 | 0.0 | 0.00 | 0.33 | 0.25 | 1013.5 | |
| 20260508020153 | -17 | 274 | 0.0 | 0.0 | 0.00 | 0.33 | 0.25 | 1013.5 | |
| 20260508015952 | -17 | 274 | 0.0 | 0.0 | 0.00 | 0.33 | 0.25 | 1013.6 | |
| 20260508015550 | -17 | 274 | 0.0 | 0.0 | 0.00 | 0.33 | 0.25 | 1013.5 | |
| 20260508015348 | -17 | 274 | 0.0 | 0.0 | 0.00 | 0.33 | 0.25 | 1013.5 | |
| 20260508014946 | -17 | 274 | 0.0 | 0.0 | 0.00 | 0.33 | 0.25 | 1013.5 | |
| 20260508014746 | -17 | 274 | 0.0 | 0.0 | 0.00 | 0.33 | 0.25 | 1013.4 | |
| 20260508014346 | -17 | 274 | 0.0 | 0.0 | 0.00 | 0.33 | 0.25 | 1013.3 | |
| 20260508014143 | -17 | 274 | 0.0 | 0.0 | 0.00 | 0.33 | 0.25 | 1013.1 | |
| 20260508013941 | -17 | 274 | 0.0 | 0.0 | 0.00 | 0.33 | 0.25 | 1013.1 | |
| 20260508013742 | -17 | 274 | 0.0 | 0.0 | 0.00 | 0.33 | 0.25 | 1013.0 | |
| 20260508013541 | -17 | 274 | 0.0 | 0.0 | 0.00 | 0.33 | 0.25 | 1013.0 | |
| 20260508013343 | -17 | 274 | 0.0 | 0.0 | 0.00 | 0.33 | 0.25 | 1012.8 | |
| 20260508013139 | -17 | 274 | 0.0 | 0.0 | 0.00 | 0.33 | 0.25 | 1012.9 | |
| 20260508012739 | -17 | 274 | 0.0 | 0.0 | 0.00 | 0.33 | 0.25 | 1012.8 | |
| 20260508012540 | -17 | 274 | 0.0 | 0.0 | 0.00 | 0.33 | 0.25 | 1012.7 | |
| 20260508012340 | -17 | 274 | 0.0 | 0.0 | 0.00 | 0.33 | 0.25 | 1012.6 | |
| 20260508012138 | -17 | 274 | 0.0 | 0.0 | 0.00 | 0.33 | 0.25 | 1012.5 | |
| 20260508011938 | -17 | 274 | 0.0 | 0.0 | 0.00 | 0.33 | 0.25 | 1012.6 | |
| 20260508011737 | -17 | 274 | 0.0 | 0.0 | 0.00 | 0.33 | 0.25 | 1012.5 | |
| 20260508011538 | -17 | 274 | 0.0 | 0.0 | 0.00 | 0.33 | 0.25 | 1012.6 | |
| 20260508011336 | -17 | 274 | 0.0 | 0.0 | 0.00 | 0.33 | 0.25 | 1012.6 | |
| 20260508011133 | -17 | 274 | 0.0 | 0.0 | 0.00 | 0.33 | 0.25 | 1012.7 | |
| 20260508010933 | -17 | 274 | 0.0 | 0.0 | 0.00 | 0.33 | 0.25 | 1012.7 | |
| 20260508010530 | -17 | 274 | 0.0 | 0.0 | 0.00 | 0.33 | 0.25 | 1012.7 | |
| 20260508010327 | -17 | 274 | 0.0 | 0.0 | 0.00 | 0.33 | 0.25 | 1012.7 | |
| 20260508010128 | -17 | 274 | 0.0 | 0.0 | 0.00 | 0.33 | 0.25 | 1012.6 | |
| 20260508005925 | -17 | 274 | 0.0 | 0.0 | 0.00 | 0.33 | 0.25 | 1012.5 | |
| 20260508005723 | -17 | 274 | 0.0 | 0.0 | 0.00 | 0.33 | 0.25 | 1012.4 | |
| 20260508005521 | -17 | 274 | 0.0 | 0.0 | 0.00 | 0.33 | 0.25 | 1012.5 | |
| 20260508005321 | -17 | 274 | 0.0 | 0.0 | 0.00 | 0.33 | 0.25 | 1012.5 | |
| 20260508005121 | -17 | 274 | 0.0 | 0.0 | 0.00 | 0.33 | 0.25 | 1012.5 | |
| 20260508004920 | -17 | 274 | 0.0 | 0.0 | 0.00 | 0.33 | 0.25 | 1012.6 | |
| 20260508004718 | -17 | 274 | 0.0 | 0.0 | 0.00 | 0.33 | 0.25 | 1012.7 | |
| 20260508004315 | -17 | 274 | 0.0 | 0.0 | 0.00 | 0.33 | 0.25 | 1012.6 | |
| 20260508004112 | -17 | 274 | 0.0 | 0.0 | 0.00 | 0.33 | 0.25 | 1012.5 | |
| 20260508003912 | -17 | 274 | 0.0 | 1.6 | 0.00 | 0.33 | 0.25 | 1012.5 | |
| 20260508003507 | -17 | 274 | 0.0 | 1.6 | 0.00 | 0.33 | 0.25 | 1012.5 | |
| 20260508003306 | -17 | 274 | 0.0 | 1.6 | 0.00 | 0.33 | 0.25 | 1012.6 | |
| 20260508003102 | -17 | 274 | 0.0 | 1.6 | 0.00 | 0.33 | 0.25 | 1012.5 | |
| 20260508002500 | -17 | 274 | 0.0 | 1.6 | 0.00 | 0.33 | 0.25 | 1012.4 | |
| 20260508002258 | -17 | 274 | 0.0 | 1.6 | 0.00 | 0.33 | 0.25 | 1012.4 | |
| 20260508002055 | -17 | 274 | 0.0 | 1.6 | 0.00 | 0.33 | 0.25 | 1012.4 | |
| 20260508001852 | -17 | 274 | 0.0 | 1.6 | 0.00 | 0.33 | 0.25 | 1012.3 | |
| 20260508001652 | -17 | 273 | 0.0 | 1.6 | 0.00 | 0.33 | 0.25 | 1012.3 | |
| 20260508001449 | -17 | 273 | 0.0 | 1.6 | 0.00 | 0.33 | 0.25 | 1012.2 | |
| 20260508001247 | -17 | 273 | 0.0 | 1.6 | 0.00 | 0.33 | 0.25 | 1012.2 | |
| 20260508001045 | -17 | 273 | 0.0 | 1.6 | 0.00 | 0.33 | 0.25 | 1012.3 | |
| 20260508000644 | -17 | 273 | 0.0 | 0.0 | 0.00 | 0.33 | 0.25 | 1012.2 | |
| 20260508000443 | -17 | 273 | 0.0 | 1.6 | 0.00 | 0.33 | 0.25 | 1012.2 | |
| 20260508000242 | -17 | 273 | 0.0 | 3.2 | 0.00 | 0.33 | 0.25 | 1012.1 | |
| 20260508000038 | -17 | 273 | 0.0 | 3.2 | 0.00 | 0.33 | 0.25 | 1012.0 | |
| 20260507235636 | -17 | 273 | 0.0 | 3.2 | 0.00 | 0.33 | 0.25 | 1011.8 | |
| 20260507235435 | -17 | 273 | 0.0 | 1.6 | 0.00 | 0.33 | 0.25 | 1012.0 | |
| 20260507235236 | -17 | 273 | 0.0 | 1.6 | 0.00 | 0.33 | 0.25 | 1012.1 | |
| 20260507234833 | -17 | 273 | 0.0 | 3.2 | 0.00 | 0.33 | 0.25 | 1012.1 | |
| 20260507234633 | -17 | 273 | 0.0 | 3.2 | 0.00 | 0.33 | 0.25 | 1012.0 | |
| 20260507234430 | -17 | 273 | 0.0 | 3.2 | 0.00 | 0.33 | 0.25 | 1012.0 | |
| 20260507234231 | -17 | 273 | 0.0 | 3.2 | 0.00 | 0.33 | 0.25 | 1012.0 | |
| 20260507233830 | -17 | 274 | 0.0 | 0.0 | 0.00 | 0.33 | 0.25 | 1012.0 | |
| 20260507233630 | -17 | 275 | 0.0 | 3.2 | 0.00 | 0.33 | 0.25 | 1011.9 | |
| 20260507233428 | -17 | 275 | 0.0 | 3.2 | 0.00 | 0.33 | 0.25 | 1011.9 | |
| 20260507233229 | -17 | 275 | 0.0 | 3.2 | 0.00 | 0.33 | 0.25 | 1011.8 | |
| 20260507233028 | -17 | 286 | 0.0 | 3.2 | 0.00 | 0.33 | 0.25 | 1011.7 | |
| 20260507232826 | -17 | 286 | 0.0 | 3.2 | 0.00 | 0.33 | 0.25 | 1011.6 | |
| 20260507232621 | -17 | 288 | 0.0 | 3.2 | 0.00 | 0.33 | 0.25 | 1011.5 | |
| 20260507232419 | -17 | 288 | 0.0 | 3.2 | 0.00 | 0.33 | 0.25 | 1011.5 | |
| 20260507232219 | -17 | 288 | 0.0 | 3.2 | 0.00 | 0.33 | 0.25 | 1011.5 | |
| 20260507232018 | -17 | 288 | 0.0 | 3.2 | 0.00 | 0.33 | 0.25 | 1011.5 | |
| 20260507231815 | -17 | 251 | 0.0 | 3.2 | 0.00 | 0.33 | 0.25 | 1011.5 | |
| 20260507231615 | -17 | 250 | 0.0 | 3.2 | 0.00 | 0.33 | 0.25 | 1011.4 | |
| 20260507231416 | -17 | 251 | 0.0 | 3.2 | 0.00 | 0.33 | 0.25 | 1011.4 | |
| 20260507231215 | -17 | 191 | 0.0 | 1.6 | 0.00 | 0.33 | 0.25 | 1011.4 | |
| 20260507231015 | -17 | 191 | 0.0 | 1.6 | 0.00 | 0.33 | 0.25 | 1011.4 | |
| 20260507230812 | -17 | 191 | 0.0 | 1.6 | 0.00 | 0.33 | 0.25 | 1011.4 | |
| 20260507230612 | -17 | 191 | 0.0 | 1.6 | 0.00 | 0.33 | 0.25 | 1011.5 | |
| 20260507230413 | -17 | 191 | 0.0 | 1.6 | 0.00 | 0.33 | 0.25 | 1011.5 | |
| 20260507230213 | -17 | 191 | 0.0 | 1.6 | 0.00 | 0.33 | 0.25 | 1011.5 | |
| 20260507230013 | -17 | 191 | 0.0 | 4.8 | 0.00 | 0.33 | 0.25 | 1011.4 | |
| 20260507225808 | -17 | 191 | 0.0 | 4.8 | 0.00 | 0.33 | 0.25 | 1011.4 | |
| 20260507225609 | -17 | 191 | 0.0 | 4.8 | 0.00 | 0.33 | 0.25 | 1011.4 | |
| 20260507225408 | -17 | 191 | 0.0 | 4.8 | 0.00 | 0.33 | 0.25 | 1011.3 | |
| 20260507225207 | -17 | 191 | 0.0 | 4.8 | 0.00 | 0.33 | 0.25 | 1011.3 | |
| 20260507224805 | -17 | 159 | 0.0 | 3.2 | 0.00 | 0.33 | 0.25 | 1011.3 | |
| 20260507224602 | -17 | 159 | 0.0 | 3.2 | 0.00 | 0.33 | 0.25 | 1011.2 | |
| 20260507224402 | -17 | 159 | 0.0 | 3.2 | 0.00 | 0.33 | 0.25 | 1011.1 | |
| 20260507224159 | -17 | 160 | 0.0 | 1.6 | 0.00 | 0.33 | 0.25 | 1011.1 | |
| 20260507223959 | -17 | 160 | 0.0 | 1.6 | 0.00 | 0.33 | 0.25 | 1011.0 | |
| 20260507223757 | -17 | 159 | 0.0 | 1.6 | 0.00 | 0.33 | 0.25 | 1011.0 | |
| 20260507223558 | -17 | 159 | 0.0 | 3.2 | 0.00 | 0.33 | 0.25 | 1011.0 | |
| 20260507223152 | -17 | 159 | 0.0 | 3.2 | 0.00 | 0.33 | 0.25 | 1011.1 | |
| 20260507222951 | -17 | 159 | 0.0 | 3.2 | 0.00 | 0.33 | 0.25 | 1011.0 | |
| 20260507222548 | -17 | 159 | 0.0 | 3.2 | 0.00 | 0.33 | 0.25 | 1011.0 | |
| 20260507222345 | -17 | 159 | 0.0 | 3.2 | 0.00 | 0.33 | 0.25 | 1011.0 | |
| 20260507222144 | -17 | 159 | 0.0 | 3.2 | 0.00 | 0.33 | 0.25 | 1010.9 | |
| 20260507221942 | -17 | 159 | 0.0 | 3.2 | 0.00 | 0.33 | 0.25 | 1011.0 | |
| 20260507221739 | -17 | 207 | 0.0 | 0.0 | 0.00 | 0.33 | 0.25 | 1011.0 | |
| 20260507221540 | -17 | 207 | 0.0 | 0.0 | 0.00 | 0.33 | 0.25 | 1011.1 | |
| 20260507221339 | -17 | 207 | 0.0 | 0.0 | 0.00 | 0.33 | 0.25 | 1010.9 | |
| 20260507221137 | -17 | 207 | 0.0 | 0.0 | 0.00 | 0.33 | 0.25 | 1010.9 | |
| 20260507220937 | -17 | 207 | 0.0 | 0.0 | 0.00 | 0.33 | 0.25 | 1011.0 | |
| 20260507220737 | -17 | 207 | 0.0 | 0.0 | 0.00 | 0.33 | 0.25 | 1011.1 | |
| 20260507220537 | -17 | 226 | 0.0 | 0.0 | 0.00 | 0.33 | 0.25 | 1011.1 | |
| 20260507220337 | -17 | 226 | 0.0 | 0.0 | 0.00 | 0.33 | 0.25 | 1011.2 | |
| 20260507220136 | -17 | 226 | 0.0 | 3.2 | 0.00 | 0.33 | 0.25 | 1011.2 | |
| 20260507215936 | -17 | 227 | 0.0 | 3.2 | 0.00 | 0.33 | 0.25 | 1011.2 | |
| 20260507215734 | -17 | 227 | 0.0 | 6.4 | 0.00 | 0.33 | 0.25 | 1011.2 | |
| 20260507215531 | -17 | 223 | 0.0 | 6.4 | 0.00 | 0.33 | 0.25 | 1011.2 | |
| 20260507215128 | -17 | 238 | 0.0 | 6.4 | 0.00 | 0.33 | 0.25 | 1011.4 | |
| 20260507214928 | -17 | 236 | 0.0 | 6.4 | 0.00 | 0.33 | 0.25 | 1011.4 | |
| 20260507214731 | -17 | 138 | 0.0 | 0.0 | 0.00 | 0.33 | 0.25 | 1011.3 | |
| 20260507214525 | -17 | 138 | 0.0 | 3.2 | 0.00 | 0.33 | 0.25 | 1011.3 | |
| 20260507214324 | -17 | 136 | 1.6 | 8.0 | 0.00 | 0.33 | 0.25 | 1011.3 | |
| 20260507214124 | -17 | 136 | 1.6 | 8.0 | 0.00 | 0.33 | 0.25 | 1011.3 | |
| 20260507213922 | -17 | 136 | 1.6 | 8.0 | 0.00 | 0.33 | 0.25 | 1011.2 | |
| 20260507213719 | -17 | 136 | 1.6 | 8.0 | 0.00 | 0.33 | 0.25 | 1011.1 | |
| 20260507213518 | -17 | 141 | 1.6 | 8.0 | 0.00 | 0.33 | 0.25 | 1010.9 | |
| 20260507213315 | -17 | 157 | 1.6 | 6.4 | 0.00 | 0.33 | 0.25 | 1010.9 | |
| 20260507213117 | -17 | 149 | 1.6 | 6.4 | 0.00 | 0.33 | 0.25 | 1010.8 | |
| 20260507212915 | -17 | 149 | 1.6 | 6.4 | 0.00 | 0.33 | 0.25 | 1010.8 | |
| 20260507212714 | -17 | 165 | 1.6 | 6.4 | 0.00 | 0.33 | 0.25 | 1010.8 | |
| 20260507212512 | -17 | 347 | 1.6 | 4.8 | 0.00 | 0.33 | 0.25 | 1010.8 | |
| 20260507212311 | -17 | 316 | 1.6 | 8.0 | 0.00 | 0.33 | 0.25 | 1011.1 | |
| 20260507212112 | -17 | 316 | 0.0 | 8.0 | 0.00 | 0.33 | 0.25 | 1011.2 | |
| 20260507211910 | -17 | 315 | 0.0 | 8.0 | 0.00 | 0.33 | 0.25 | 1011.1 | |
| 20260507211707 | -17 | 315 | 0.0 | 8.0 | 0.00 | 0.33 | 0.25 | 1011.1 | |
| 20260507211506 | -17 | 314 | 0.0 | 8.0 | 0.00 | 0.33 | 0.25 | 1011.1 | |
| 20260507211303 | -17 | 327 | 0.0 | 0.0 | 0.00 | 0.33 | 0.25 | 1011.1 | |
| 20260507210859 | -17 | 327 | 0.0 | 1.6 | 0.00 | 0.33 | 0.25 | 1011.0 | |
| 20260507210500 | -17 | 327 | 0.0 | 4.8 | 0.00 | 0.33 | 0.25 | 1011.0 | |
| 20260507210258 | -17 | 327 | 0.0 | 4.8 | 0.00 | 0.33 | 0.25 | 1011.1 | |
| 20260507210100 | -17 | 327 | 0.0 | 4.8 | 0.00 | 0.33 | 0.25 | 1011.1 | |
| 20260507205900 | -17 | 327 | 0.0 | 4.8 | 0.00 | 0.33 | 0.25 | 1010.9 | |
| 20260507205659 | -17 | 327 | 1.6 | 4.8 | 0.00 | 0.33 | 0.25 | 1010.9 | |
| 20260507205455 | -17 | 107 | 1.6 | 4.8 | 0.00 | 0.33 | 0.25 | 1011.0 | |
| 20260507205252 | -17 | 84 | 1.6 | 4.8 | 0.00 | 0.33 | 0.25 | 1010.9 | |
| 20260507204851 | -17 | 84 | 1.6 | 4.8 | 0.00 | 0.33 | 0.25 | 1011.0 | |
| 20260507204451 | -17 | 217 | 1.6 | 6.4 | 0.00 | 0.33 | 0.25 | 1011.0 | |
| 20260507204252 | -17 | 211 | 1.6 | 6.4 | 0.00 | 0.33 | 0.25 | 1010.9 | |
| 20260507204052 | -17 | 213 | 1.6 | 6.4 | 0.00 | 0.33 | 0.25 | 1010.9 | |
| 20260507203850 | -17 | 213 | 1.6 | 6.4 | 0.00 | 0.33 | 0.25 | 1010.7 | |
| 20260507203650 | -17 | 215 | 1.6 | 6.4 | 0.00 | 0.33 | 0.25 | 1010.7 | |
| 20260507203451 | -17 | 215 | 1.6 | 6.4 | 0.00 | 0.33 | 0.25 | 1010.6 | |
| 20260507203251 | -17 | 106 | 1.6 | 6.4 | 0.00 | 0.33 | 0.25 | 1010.6 | |
| 20260507203049 | -17 | 155 | 1.6 | 8.0 | 0.00 | 0.33 | 0.25 | 1010.5 | |
| 20260507202848 | -17 | 221 | 1.6 | 8.0 | 0.00 | 0.33 | 0.25 | 1010.5 | |
| 20260507202649 | -17 | 80 | 1.6 | 8.0 | 0.00 | 0.33 | 0.25 | 1010.4 | |
| 20260507202449 | -17 | 155 | 1.6 | 8.0 | 0.00 | 0.33 | 0.25 | 1010.5 | |
| 20260507202047 | -17 | 169 | 3.2 | 6.4 | 0.00 | 0.33 | 0.25 | 1010.7 | |
| 20260507201646 | -17 | 151 | 3.2 | 4.8 | 0.00 | 0.33 | 0.25 | 1010.6 | |
| 20260507201444 | -17 | 88 | 3.2 | 4.8 | 0.00 | 0.33 | 0.25 | 1010.6 | |
| 20260507201243 | -17 | 332 | 3.2 | 8.0 | 0.00 | 0.33 | 0.25 | 1010.8 | |
| 20260507201044 | -17 | 19 | 1.6 | 8.0 | 0.00 | 0.33 | 0.25 | 1010.7 | |
| 20260507200841 | -17 | 126 | 1.6 | 8.0 | 0.00 | 0.33 | 0.25 | 1010.7 | |
| 20260507200642 | -17 | 45 | 1.6 | 8.0 | 0.00 | 0.33 | 0.25 | 1010.7 | |
| 20260507200439 | -17 | 35 | 1.6 | 8.0 | 0.00 | 0.33 | 0.25 | 1010.7 | |
| 20260507200238 | -17 | 11 | 1.6 | 6.4 | 0.00 | 0.33 | 0.25 | 1010.6 | |
| 20260507200038 | -17 | 9 | 1.6 | 6.4 | 0.00 | 0.33 | 0.25 | 1010.6 | |
| 20260507195839 | -17 | 9 | 1.6 | 6.4 | 0.00 | 0.33 | 0.25 | 1010.6 | |
| 20260507195640 | -17 | 350 | 1.6 | 4.8 | 0.00 | 0.33 | 0.25 | 1010.5 | |
| 20260507195439 | -17 | 125 | 1.6 | 4.8 | 0.00 | 0.33 | 0.25 | 1010.6 | |
| 20260507195238 | -17 | 79 | 1.6 | 4.8 | 0.00 | 0.33 | 0.25 | 1010.6 | |
| 20260507195038 | -17 | 79 | 1.6 | 4.8 | 0.00 | 0.33 | 0.25 | 1010.6 | |
| 20260507194841 | -17 | 116 | 1.6 | 6.4 | 0.00 | 0.33 | 0.25 | 1010.5 | |
| 20260507194639 | -17 | 107 | 1.6 | 6.4 | 0.00 | 0.33 | 0.25 | 1010.5 | |
| 20260507194437 | -17 | 115 | 1.6 | 6.4 | 0.00 | 0.33 | 0.25 | 1010.6 | |
| 20260507194237 | -17 | 115 | 1.6 | 8.0 | 0.00 | 0.33 | 0.25 | 1010.5 | |
| 20260507194037 | -17 | 115 | 3.2 | 9.7 | 0.00 | 0.33 | 0.25 | 1010.5 | |
| 20260507193838 | -17 | 54 | 3.2 | 9.7 | 0.00 | 0.33 | 0.25 | 1010.5 | |
| 20260507193637 | -17 | 132 | 3.2 | 9.7 | 0.00 | 0.33 | 0.25 | 1010.5 | |
| 20260507193437 | -17 | 5 | 3.2 | 9.7 | 0.00 | 0.33 | 0.25 | 1010.6 | |
| 20260507193236 | -17 | 250 | 1.6 | 9.7 | 0.00 | 0.33 | 0.25 | 1010.6 | |
| 20260507192839 | -17 | 292 | 1.6 | 4.8 | 0.00 | 0.33 | 0.25 | 1010.6 | |
| 20260507192636 | -17 | 327 | 1.6 | 4.8 | 0.00 | 0.33 | 0.25 | 1010.5 | |
| 20260507192437 | -17 | 93 | 1.6 | 4.8 | 0.00 | 0.33 | 0.25 | 1010.6 | |
| 20260507192235 | -17 | 93 | 1.6 | 4.8 | 0.00 | 0.33 | 0.25 | 1010.7 | |
| 20260507192034 | -17 | 187 | 1.6 | 4.8 | 0.00 | 0.33 | 0.25 | 1010.7 | |
| 20260507191835 | -17 | 167 | 0.0 | 4.8 | 0.00 | 0.33 | 0.25 | 1010.7 | |
| 20260507191435 | -17 | 175 | 1.6 | 4.8 | 0.00 | 0.33 | 0.25 | 1010.9 | |
| 20260507191235 | -17 | 263 | 0.0 | 4.8 | 0.00 | 0.33 | 0.25 | 1010.9 | |
| 20260507191030 | -17 | 313 | 0.0 | 4.8 | 0.00 | 0.33 | 0.25 | 1010.8 | |
| 20260507190831 | -17 | 313 | 1.6 | 4.8 | 0.00 | 0.33 | 0.25 | 1010.8 | |
| 20260507190432 | -17 | 256 | 1.6 | 4.8 | 0.00 | 0.33 | 0.25 | 1010.7 | |
| 20260507190230 | -17 | 245 | 1.6 | 4.8 | 0.00 | 0.33 | 0.25 | 1010.7 | |
| 20260507190030 | -17 | 245 | 1.6 | 4.8 | 0.00 | 0.33 | 0.25 | 1010.6 | |
| 20260507185630 | -17 | 120 | 0.0 | 4.8 | 0.00 | 0.33 | 0.25 | 1010.6 | |
| 20260507185426 | -17 | 5 | 0.0 | 4.8 | 0.00 | 0.33 | 0.25 | 1010.7 | |
| 20260507185226 | -17 | 5 | 1.6 | 4.8 | 0.00 | 0.33 | 0.25 | 1010.8 | |
| 20260507184827 | -17 | 161 | 1.6 | 6.4 | 0.00 | 0.33 | 0.25 | 1010.7 | |
| 20260507184626 | -17 | 161 | 1.6 | 6.4 | 0.00 | 0.33 | 0.25 | 1010.5 | |
| 20260507184428 | -17 | 0 | 0.0 | 6.4 | 0.00 | 0.33 | 0.25 | 1010.5 | |
| 20260507184226 | -17 | 355 | 0.0 | 6.4 | 0.00 | 0.33 | 0.25 | 1010.5 | |
| 20260507184027 | -17 | 351 | 1.6 | 6.4 | 0.00 | 0.33 | 0.25 | 1010.4 | |
| 20260507183826 | -17 | 350 | 1.6 | 6.4 | 0.00 | 0.33 | 0.25 | 1010.5 | |
| 20260507183624 | -17 | 350 | 1.6 | 6.4 | 0.00 | 0.33 | 0.25 | 1010.5 | |
| 20260507183424 | -17 | 350 | 1.6 | 6.4 | 0.00 | 0.33 | 0.25 | 1010.5 | |
| 20260507183224 | -17 | 350 | 1.6 | 6.4 | 0.00 | 0.33 | 0.25 | 1010.5 | |
| 20260507183025 | -17 | 350 | 1.6 | 6.4 | 0.00 | 0.33 | 0.25 | 1010.6 | |
| 20260507182825 | -17 | 170 | 0.0 | 3.2 | 0.00 | 0.33 | 0.25 | 1010.7 | |
| 20260507182626 | -17 | 167 | 1.6 | 4.8 | 0.00 | 0.33 | 0.25 | 1010.7 | |
| 20260507182423 | -17 | 164 | 1.6 | 4.8 | 0.00 | 0.33 | 0.25 | 1010.7 | |
| 20260507182223 | -17 | 164 | 1.6 | 4.8 | 0.00 | 0.33 | 0.25 | 1010.8 | |
| 20260507182023 | -17 | 165 | 1.6 | 4.8 | 0.00 | 0.33 | 0.25 | 1010.9 | |
| 20260507181821 | -17 | 165 | 1.6 | 4.8 | 0.00 | 0.33 | 0.25 | 1010.9 | |
| 20260507181621 | -17 | 164 | 1.6 | 4.8 | 0.00 | 0.33 | 0.25 | 1010.9 | |
| 20260507181420 | -17 | 302 | 1.6 | 4.8 | 0.00 | 0.33 | 0.25 | 1010.8 | |
| 20260507181220 | -17 | 301 | 1.6 | 4.8 | 0.00 | 0.33 | 0.25 | 1010.7 | |
| 20260507180615 | -17 | 232 | 1.6 | 6.4 | 0.00 | 0.33 | 0.25 | 1010.4 | |
| 20260507180415 | -17 | 338 | 1.6 | 9.7 | 0.00 | 0.33 | 0.25 | 1010.5 | |
| 20260507180213 | -17 | 25 | 1.6 | 9.7 | 0.00 | 0.33 | 0.25 | 1010.5 | |
| 20260507180009 | -17 | 25 | 3.2 | 9.7 | 0.00 | 0.33 | 0.25 | 1010.8 | |
| 20260507175809 | -17 | 25 | 1.6 | 9.7 | 0.00 | 0.33 | 0.25 | 1010.9 | |
| 20260507175208 | -17 | 267 | 1.6 | 6.4 | 0.00 | 0.33 | 0.25 | 1010.9 | |
| 20260507175008 | -17 | 32 | 1.6 | 11.3 | 0.00 | 0.33 | 0.25 | 1010.8 | |
| 20260507174807 | -17 | 11 | 1.6 | 11.3 | 0.00 | 0.33 | 0.25 | 1010.7 | |
| 20260507174603 | -17 | 11 | 1.6 | 11.3 | 0.00 | 0.33 | 0.25 | 1010.6 | |
| 20260507174402 | -17 | 11 | 1.6 | 11.3 | 0.00 | 0.33 | 0.25 | 1010.6 | |
| 20260507174202 | -17 | 36 | 1.6 | 11.3 | 0.00 | 0.33 | 0.25 | 1010.5 | |
| 20260507174004 | -17 | 342 | 1.6 | 9.7 | 0.00 | 0.33 | 0.25 | 1010.5 | |
| 20260507173801 | -17 | 143 | 1.6 | 9.7 | 0.00 | 0.33 | 0.25 | 1010.6 | |
| 20260507173559 | -17 | 144 | 1.6 | 9.7 | 0.00 | 0.33 | 0.25 | 1010.6 | |
| 20260507173355 | -17 | 143 | 1.6 | 9.7 | 0.00 | 0.33 | 0.25 | 1010.6 | |
| 20260507173154 | -17 | 140 | 3.2 | 9.7 | 0.00 | 0.33 | 0.25 | 1010.7 | |
| 20260507172952 | -17 | 208 | 1.6 | 6.4 | 0.00 | 0.33 | 0.25 | 1010.8 | |
| 20260507172752 | -17 | 74 | 1.6 | 8.0 | 0.00 | 0.33 | 0.25 | 1010.9 | |
| 20260507172552 | -17 | 9 | 1.6 | 8.0 | 0.00 | 0.33 | 0.25 | 1011.0 | |
| 20260507172353 | -17 | 9 | 1.6 | 8.0 | 0.00 | 0.33 | 0.25 | 1011.1 | |
| 20260507172153 | -17 | 9 | 1.6 | 8.0 | 0.00 | 0.33 | 0.25 | 1011.1 | |
| 20260507171750 | -17 | 324 | 1.6 | 6.4 | 0.00 | 0.33 | 0.25 | 1010.5 | |
| 20260507171551 | -17 | 132 | 3.2 | 11.3 | 0.00 | 0.33 | 0.25 | 1010.3 | |
| 20260507171347 | -17 | 305 | 3.2 | 11.3 | 0.00 | 0.33 | 0.25 | 1010.3 | |
| 20260507171146 | -17 | 109 | 3.2 | 11.3 | 0.00 | 0.33 | 0.25 | 1010.2 | |
| 20260507170944 | -17 | 343 | 3.2 | 11.3 | 0.00 | 0.33 | 0.25 | 1010.2 | |
| 20260507170742 | -17 | 261 | 3.2 | 11.3 | 0.00 | 0.33 | 0.25 | 1010.1 | |
| 20260507170544 | -17 | 126 | 3.2 | 11.3 | 0.00 | 0.33 | 0.25 | 1010.0 | |
| 20260507170340 | -17 | 22 | 3.2 | 11.3 | 0.00 | 0.33 | 0.25 | 1010.0 | |
| 20260507170141 | -17 | 26 | 3.2 | 14.5 | 0.00 | 0.33 | 0.25 | 1010.0 | |
| 20260507165943 | -17 | 195 | 3.2 | 14.5 | 0.00 | 0.33 | 0.25 | 1010.0 | |
| 20260507165740 | -17 | 310 | 3.2 | 14.5 | 0.00 | 0.33 | 0.25 | 1009.8 | |
| 20260507165540 | -17 | 247 | 4.8 | 14.5 | 0.00 | 0.33 | 0.25 | 1009.8 | |
| 20260507165341 | -17 | 274 | 4.8 | 14.5 | 0.00 | 0.33 | 0.25 | 1010.0 | |
| 20260507164939 | -17 | 238 | 4.8 | 11.3 | 0.00 | 0.33 | 0.25 | 1009.8 | |
| 20260507164740 | -17 | 311 | 3.2 | 11.3 | 0.00 | 0.33 | 0.25 | 1009.6 | |
| 20260507164539 | -17 | 339 | 3.2 | 11.3 | 0.00 | 0.33 | 0.25 | 1009.4 | |
| 20260507164339 | -17 | 106 | 1.6 | 11.3 | 0.00 | 0.33 | 0.25 | 1009.2 | |
| 20260507163940 | -17 | 24 | 0.0 | 4.8 | 0.00 | 0.33 | 0.25 | 1009.4 | |
| 20260507163736 | -17 | 9 | 0.0 | 1.6 | 0.00 | 0.33 | 0.25 | 1009.6 | |
| 20260507163537 | -17 | 9 | 0.0 | 1.6 | 0.00 | 0.33 | 0.25 | 1009.7 | |
| 20260507163337 | -17 | 9 | 0.0 | 3.2 | 0.00 | 0.33 | 0.25 | 1009.7 | |
| 20260507163136 | -17 | 9 | 0.0 | 3.2 | 0.00 | 0.33 | 0.25 | 1009.7 | |
| 20260507162933 | -17 | 9 | 0.0 | 3.2 | 0.00 | 0.33 | 0.25 | 1009.6 | |
| 20260507162731 | -17 | 9 | 0.0 | 3.2 | 0.00 | 0.33 | 0.25 | 1009.5 | |
| 20260507162530 | -17 | 9 | 0.0 | 3.2 | 0.00 | 0.33 | 0.25 | 1009.6 | |
| 20260507162330 | -17 | 9 | 0.0 | 3.2 | 0.00 | 0.33 | 0.25 | 1009.6 | |
| 20260507162130 | -17 | 103 | 0.0 | 0.0 | 0.00 | 0.33 | 0.25 | 1009.6 | |
| 20260507161931 | -17 | 103 | 0.0 | 0.0 | 0.00 | 0.33 | 0.25 | 1009.6 | |
| 20260507161728 | -17 | 103 | 0.0 | 0.0 | 0.00 | 0.33 | 0.25 | 1009.7 | |
| 20260507161527 | -17 | 103 | 0.0 | 0.0 | 0.00 | 0.33 | 0.25 | 1010.0 | |
| 20260507161324 | -17 | 103 | 0.0 | 1.6 | 0.00 | 0.33 | 0.25 | 1010.1 | |
| 20260507161123 | -17 | 103 | 0.0 | 1.6 | 0.00 | 0.33 | 0.25 | 1010.1 | |
| 20260507160518 | -17 | 103 | 0.0 | 1.6 | 0.00 | 0.33 | 0.25 | 1010.4 | |
| 20260507160318 | -17 | 104 | 0.0 | 1.6 | 0.00 | 0.33 | 0.25 | 1010.7 | |
| 20260507155917 | -17 | 103 | 0.0 | 1.6 | 0.00 | 0.33 | 0.25 | 1010.9 | |
| 20260507155113 | -17 | 57 | 0.0 | 3.2 | 0.00 | 0.33 | 0.25 | 1010.7 | |
| 20260507154911 | -17 | 56 | 0.0 | 3.2 | 0.00 | 0.33 | 0.25 | 1010.7 | |
| 20260507154711 | -17 | 56 | 0.0 | 3.2 | 0.00 | 0.33 | 0.25 | 1010.6 | |
| 20260507154510 | -17 | 57 | 0.0 | 3.2 | 0.00 | 0.33 | 0.25 | 1010.6 | |
| 20260507154309 | -17 | 56 | 0.0 | 3.2 | 0.00 | 0.33 | 0.25 | 1010.7 | |
| 20260507154107 | -17 | 57 | 0.0 | 3.2 | 0.00 | 0.33 | 0.25 | 1010.9 | |
| 20260507153904 | -17 | 0 | 0.0 | 0.0 | 0.00 | 0.33 | 0.25 | 1010.8 | |
| 20260507153504 | -17 | 0 | 0.0 | 0.0 | 0.00 | 0.33 | 0.25 | 1010.8 | |
| 20260507153300 | -17 | 0 | 0.0 | 0.0 | 0.00 | 0.33 | 0.25 | 1010.8 | |
| 20260507153100 | -17 | 0 | 0.0 | 0.0 | 0.00 | 0.33 | 0.25 | 1010.6 | |
| 20260507152903 | -17 | 0 | 0.0 | 0.0 | 0.00 | 0.33 | 0.25 | 1010.4 | |
| 20260507152702 | -17 | 0 | 0.0 | 0.0 | 0.00 | 0.33 | 0.25 | 1010.3 | |
| 20260507152501 | -17 | 0 | 0.0 | 0.0 | 0.00 | 0.33 | 0.25 | 1010.2 | |
| 20260507152305 | -17 | 0 | 0.0 | 0.0 | 0.00 | 0.33 | 0.25 | 1010.2 | |
| 20260507152100 | -17 | 0 | 0.0 | 0.0 | 0.00 | 0.33 | 0.25 | 1010.3 | |
| 20260507151859 | -17 | 0 | 0.0 | 0.0 | 0.00 | 0.33 | 0.25 | 1010.2 | |
| 20260507151456 | -17 | 0 | 0.0 | 0.0 | 0.00 | 0.33 | 0.25 | 1010.3 | |
| 20260507151253 | -17 | 0 | 0.0 | 0.0 | 0.00 | 0.33 | 0.25 | 1010.0 | |
| 20260507151050 | -17 | 0 | 0.0 | 1.6 | 0.00 | 0.33 | 0.25 | 1010.1 | |
| 20260507150849 | -17 | 0 | 0.0 | 3.2 | 0.00 | 0.33 | 0.25 | 1010.3 | |
| 20260507150446 | -17 | 0 | 0.0 | 6.4 | 0.00 | 0.33 | 0.25 | 1010.3 | |
| 20260507145844 | -17 | 343 | 0.0 | 6.4 | 0.00 | 0.33 | 0.25 | 1010.5 | |
| 20260507145644 | -17 | 76 | 0.0 | 1.6 | 0.00 | 0.33 | 0.25 | 1010.6 | |
| 20260507145242 | -17 | 76 | 0.0 | 0.0 | 0.00 | 0.33 | 0.25 | 1010.5 | |
| 20260507145040 | -17 | 76 | 0.0 | 0.0 | 0.00 | 0.33 | 0.25 | 1010.6 | |
| 20260507144840 | -17 | 76 | 0.0 | 0.0 | 0.00 | 0.33 | 0.25 | 1010.5 | |
| 20260507144641 | -17 | 76 | 0.0 | 0.0 | 0.00 | 0.33 | 0.25 | 1010.3 | |
| 20260507144440 | -17 | 76 | 0.0 | 0.0 | 0.00 | 0.33 | 0.25 | 1010.3 | |
| 20260507144240 | -17 | 76 | 0.0 | 0.0 | 0.00 | 0.33 | 0.25 | 1010.3 | |
| 20260507144039 | -17 | 76 | 0.0 | 0.0 | 0.00 | 0.33 | 0.25 | 1010.2 | |
| 20260507143839 | -17 | 76 | 0.0 | 0.0 | 0.00 | 0.33 | 0.25 | 1010.2 | |
| 20260507143638 | -17 | 76 | 0.0 | 0.0 | 0.00 | 0.33 | 0.25 | 1010.1 | |
| 20260507143438 | -17 | 76 | 0.0 | 0.0 | 0.00 | 0.33 | 0.25 | 1010.1 | |
| 20260507143239 | -17 | 76 | 0.0 | 1.6 | 0.00 | 0.33 | 0.25 | 1010.0 | |
| 20260507143036 | -17 | 76 | 0.0 | 1.6 | 0.00 | 0.33 | 0.25 | 1010.0 | |
| 20260507142836 | -17 | 76 | 0.0 | 1.6 | 0.00 | 0.33 | 0.25 | 1010.0 | |
| 20260507142637 | -17 | 76 | 0.0 | 1.6 | 0.00 | 0.33 | 0.25 | 1010.1 | |
| 20260507142234 | -17 | 76 | 0.0 | 1.6 | 0.00 | 0.33 | 0.25 | 1010.0 | |
| 20260507141630 | -17 | 76 | 0.0 | 1.6 | 0.00 | 0.33 | 0.25 | 1010.0 | |
| 20260507141430 | -17 | 76 | 0.0 | 3.2 | 0.00 | 0.33 | 0.25 | 1010.0 | |
| 20260507140829 | -17 | 76 | 0.0 | 4.8 | 0.00 | 0.33 | 0.25 | 1010.2 | |
| 20260507140630 | -17 | 76 | 0.0 | 4.8 | 0.00 | 0.33 | 0.25 | 1010.3 | |
| 20260507140426 | -17 | 76 | 0.0 | 4.8 | 0.00 | 0.33 | 0.25 | 1010.3 | |
| 20260507135820 | -17 | 77 | 0.0 | 1.6 | 0.00 | 0.33 | 0.25 | 1010.3 | |
| 20260507135619 | -17 | 77 | 0.0 | 1.6 | 0.00 | 0.33 | 0.25 | 1010.3 | |
| 20260507135216 | -17 | 77 | 0.0 | 1.6 | 0.00 | 0.33 | 0.25 | 1010.4 | |
| 20260507134814 | -17 | 77 | 0.0 | 1.6 | 0.00 | 0.33 | 0.25 | 1010.4 | |
| 20260507134409 | -17 | 77 | 0.0 | 1.6 | 0.00 | 0.33 | 0.25 | 1010.5 | |
| 20260507134008 | -17 | 77 | 0.0 | 1.6 | 0.00 | 0.33 | 0.25 | 1010.6 | |
| 20260507133808 | -17 | 77 | 0.0 | 1.6 | 0.00 | 0.33 | 0.25 | 1010.6 | |
| 20260507133609 | -17 | 77 | 0.0 | 3.2 | 0.00 | 0.33 | 0.25 | 1010.7 | |
| 20260507133405 | -17 | 77 | 0.0 | 3.2 | 0.00 | 0.33 | 0.25 | 1010.8 | |
| 20260507133202 | -17 | 77 | 0.0 | 3.2 | 0.00 | 0.33 | 0.25 | 1011.0 | |
| 20260507133003 | -17 | 77 | 0.0 | 3.2 | 0.00 | 0.33 | 0.25 | 1011.1 | |
| 20260507132802 | -17 | 77 | 0.0 | 3.2 | 0.00 | 0.33 | 0.25 | 1011.1 | |
| 20260507132600 | -17 | 77 | 0.0 | 0.0 | 0.00 | 0.33 | 0.25 | 1011.1 | |
| 20260507132400 | -17 | 77 | 0.0 | 0.0 | 0.00 | 0.33 | 0.25 | 1011.2 | |
| 20260507132200 | -17 | 77 | 0.0 | 0.0 | 0.00 | 0.33 | 0.25 | 1011.2 | |
| 20260507132001 | -17 | 77 | 0.0 | 0.0 | 0.00 | 0.33 | 0.25 | 1011.2 | |
| 20260507131759 | -17 | 77 | 0.0 | 1.6 | 0.00 | 0.33 | 0.25 | 1011.2 | |
| 20260507131558 | -17 | 77 | 0.0 | 1.6 | 0.00 | 0.33 | 0.25 | 1011.2 | |
| 20260507131357 | -17 | 77 | 0.0 | 1.6 | 0.00 | 0.33 | 0.25 | 1011.2 | |
| 20260507131156 | -17 | 77 | 0.0 | 1.6 | 0.00 | 0.33 | 0.25 | 1011.2 | |
| 20260507130954 | -17 | 77 | 0.0 | 0.0 | 0.00 | 0.33 | 0.25 | 1011.2 | |
| 20260507130753 | -17 | 78 | 0.0 | 0.0 | 0.00 | 0.33 | 0.25 | 1011.1 | |
| 20260507130551 | -17 | 80 | 0.0 | 0.0 | 0.00 | 0.33 | 0.25 | 1011.1 | |
| 20260507130348 | -17 | 80 | 0.0 | 0.0 | 0.00 | 0.33 | 0.25 | 1011.1 | |
| 20260507130149 | -17 | 80 | 0.0 | 0.0 | 0.00 | 0.33 | 0.25 | 1011.0 | |
| 20260507125946 | -17 | 80 | 0.0 | 0.0 | 0.00 | 0.33 | 0.25 | 1010.9 | |
| 20260507125746 | -17 | 80 | 0.0 | 0.0 | 0.00 | 0.33 | 0.25 | 1010.8 | |
| 20260507125543 | -17 | 80 | 0.0 | 1.6 | 0.00 | 0.33 | 0.25 | 1010.9 | |
| 20260507125341 | -17 | 80 | 0.0 | 1.6 | 0.00 | 0.33 | 0.25 | 1010.9 | |
| 20260507125139 | -17 | 80 | 0.0 | 1.6 | 0.00 | 0.33 | 0.25 | 1010.8 | |
| 20260507124939 | -17 | 80 | 0.0 | 1.6 | 0.00 | 0.33 | 0.25 | 1010.9 | |
| 20260507124739 | -17 | 80 | 0.0 | 1.6 | 0.00 | 0.33 | 0.25 | 1010.9 | |
| 20260507124538 | -17 | 80 | 0.0 | 1.6 | 0.00 | 0.33 | 0.25 | 1010.8 | |
| 20260507124338 | -17 | 80 | 0.0 | 1.6 | 0.00 | 0.33 | 0.25 | 1010.7 | |
| 20260507124138 | -17 | 80 | 0.0 | 1.6 | 0.00 | 0.33 | 0.25 | 1010.8 | |
| 20260507123933 | -17 | 80 | 0.0 | 1.6 | 0.00 | 0.33 | 0.25 | 1010.9 | |
| 20260507123735 | -17 | 80 | 0.0 | 1.6 | 0.00 | 0.33 | 0.25 | 1011.0 | |
| 20260507123534 | -17 | 80 | 0.0 | 0.0 | 0.00 | 0.33 | 0.25 | 1011.1 | |
| 20260507123333 | -17 | 80 | 0.0 | 1.6 | 0.00 | 0.33 | 0.25 | 1011.1 | |
| 20260507122532 | -17 | 80 | 0.0 | 1.6 | 0.00 | 0.33 | 0.25 | 1011.2 | |
| 20260507122333 | -17 | 80 | 0.0 | 1.6 | 0.00 | 0.33 | 0.25 | 1011.1 | |
| 20260507122130 | -17 | 80 | 0.0 | 1.6 | 0.00 | 0.33 | 0.25 | 1010.9 | |
| 20260507121931 | -17 | 80 | 0.0 | 3.2 | 0.00 | 0.33 | 0.25 | 1010.9 | |
| 20260507121728 | -17 | 80 | 0.0 | 3.2 | 0.00 | 0.33 | 0.25 | 1010.8 | |
| 20260507121527 | -17 | 80 | 0.0 | 3.2 | 0.00 | 0.33 | 0.25 | 1010.9 | |
| 20260507121325 | -17 | 80 | 0.0 | 3.2 | 0.00 | 0.33 | 0.25 | 1010.9 | |
| 20260507121127 | -17 | 81 | 0.0 | 3.2 | 0.00 | 0.33 | 0.25 | 1011.0 | |
| 20260507120726 | -17 | 81 | 0.0 | 0.0 | 0.00 | 0.33 | 0.25 | 1010.7 | |
| 20260507120322 | -17 | 81 | 0.0 | 0.0 | 0.00 | 0.33 | 0.25 | 1010.7 | |
| 20260507120120 | -17 | 81 | 0.0 | 0.0 | 0.00 | 0.33 | 0.25 | 1010.7 | |
| 20260507115919 | 18 | 81 | 0.0 | 0.0 | 0.00 | 0.33 | 0.25 | 95 | 1010.9 |
| 20260507115716 | 18 | 81 | 0.0 | 0.0 | 0.00 | 0.33 | 0.25 | 95 | 1010.8 |
| 20260507115516 | 18 | 81 | 0.0 | 0.0 | 0.00 | 0.33 | 0.25 | 95 | 1010.8 |
| 20260507115315 | 18 | 81 | 0.0 | 0.0 | 0.00 | 0.33 | 0.25 | 95 | 1010.8 |
| 20260507115113 | 18 | 81 | 0.0 | 0.0 | 0.00 | 0.33 | 0.25 | 95 | 1010.9 |
| 20260507114710 | 18 | 81 | 0.0 | 0.0 | 0.00 | 0.33 | 0.25 | 95 | 1011.0 |
| 20260507114509 | 18 | 81 | 0.0 | 0.0 | 0.00 | 0.33 | 0.25 | 95 | 1011.1 |
| 20260507114312 | 18 | 81 | 0.0 | 0.0 | 0.00 | 0.33 | 0.25 | 95 | 1011.0 |
| 20260507114109 | 18 | 81 | 0.0 | 0.0 | 0.00 | 0.33 | 0.25 | 95 | 1010.9 |
| 20260507113910 | 18 | 81 | 0.0 | 0.0 | 0.00 | 0.33 | 0.25 | 95 | 1010.8 |
| 20260507113707 | 18 | 81 | 0.0 | 0.0 | 0.00 | 0.33 | 0.25 | 95 | 1010.6 |
| 20260507113507 | 18 | 81 | 0.0 | 0.0 | 0.00 | 0.33 | 0.25 | 95 | 1010.6 |
| 20260507113304 | 18 | 81 | 0.0 | 0.0 | 0.00 | 0.33 | 0.25 | 95 | 1010.9 |
| 20260507113101 | 18 | 81 | 0.0 | 0.0 | 0.00 | 0.33 | 0.25 | 95 | 1011.1 |
| 20260507112900 | 18 | 81 | 0.0 | 0.0 | 0.00 | 0.33 | 0.25 | 95 | 1011.1 |
| 20260507112659 | 18 | 81 | 0.0 | 0.0 | 0.00 | 0.33 | 0.25 | 95 | 1011.2 |
| 20260507112459 | 18 | 81 | 0.0 | 0.0 | 0.00 | 0.33 | 0.25 | 95 | 1011.2 |
| 20260507112258 | 18 | 81 | 0.0 | 0.0 | 0.00 | 0.33 | 0.25 | 95 | 1011.2 |
| 20260507112059 | 18 | 81 | 0.0 | 1.6 | 0.00 | 0.33 | 0.25 | 95 | 1011.2 |
| 20260507111856 | 18 | 81 | 0.0 | 1.6 | 0.00 | 0.33 | 0.25 | 95 | 1011.2 |
| 20260507111455 | 18 | 81 | 0.0 | 1.6 | 0.00 | 0.33 | 0.25 | 95 | 1011.2 |
| 20260507111252 | 18 | 81 | 0.0 | 1.6 | 0.00 | 0.33 | 0.25 | 95 | 1011.1 |
| 20260507111050 | 18 | 81 | 0.0 | 1.6 | 0.00 | 0.33 | 0.25 | 95 | 1011.1 |
| 20260507110852 | 18 | 81 | 0.0 | 1.6 | 0.00 | 0.33 | 0.25 | 95 | 1011.1 |
| 20260507110650 | 18 | 81 | 0.0 | 0.0 | 0.00 | 0.33 | 0.25 | 95 | 1011.2 |
| 20260507110449 | 18 | 81 | 0.0 | 0.0 | 0.00 | 0.33 | 0.25 | 95 | 1011.2 |
| 20260507110249 | 18 | 81 | 0.0 | 0.0 | 0.00 | 0.33 | 0.25 | 95 | 1011.3 |
| 20260507110047 | 18 | 81 | 0.0 | 0.0 | 0.00 | 0.33 | 0.25 | 95 | 1011.2 |
| 20260507105845 | 18 | 81 | 0.0 | 0.0 | 0.00 | 0.33 | 0.25 | 95 | 1011.2 |
| 20260507105642 | 18 | 81 | 0.0 | 0.0 | 0.00 | 0.33 | 0.25 | 95 | 1011.2 |
| 20260507105443 | 18 | 81 | 0.0 | 1.6 | 0.03 | 0.33 | 0.25 | 95 | 1011.1 |
| 20260507105240 | 18 | 81 | 0.0 | 1.6 | 0.03 | 0.33 | 0.25 | 95 | 1011.1 |
| 20260507105041 | 18 | 81 | 0.0 | 1.6 | 0.03 | 0.33 | 0.25 | 95 | 1011.2 |
| 20260507104842 | 18 | 81 | 0.0 | 1.6 | 0.03 | 0.33 | 0.25 | 95 | 1011.1 |
| 20260507104441 | 18 | 81 | 0.0 | 0.0 | 0.03 | 0.33 | 0.25 | 95 | 1011.0 |
| 20260507104038 | 18 | 81 | 0.0 | 1.6 | 0.03 | 0.33 | 0.25 | 95 | 1011.0 |
| 20260507103837 | 18 | 81 | 0.0 | 1.6 | 0.03 | 0.33 | 0.25 | 95 | 1010.9 |
| 20260507103639 | 18 | 81 | 0.0 | 1.6 | 0.03 | 0.33 | 0.25 | 95 | 1010.8 |
| 20260507103237 | 18 | 81 | 0.0 | 1.6 | 0.03 | 0.33 | 0.25 | 95 | 1010.6 |
| 20260507102835 | 18 | 81 | 0.0 | 0.0 | 0.03 | 0.33 | 0.25 | 95 | 1010.6 |
| 20260507102635 | 18 | 81 | 0.0 | 0.0 | 0.03 | 0.33 | 0.25 | 95 | 1010.7 |
| 20260507102437 | 18 | 81 | 0.0 | 0.0 | 0.03 | 0.33 | 0.25 | 95 | 1010.7 |
| 20260507102237 | 18 | 81 | 0.0 | 0.0 | 0.03 | 0.33 | 0.25 | 95 | 1010.9 |
| 20260507102038 | 18 | 81 | 0.0 | 0.0 | 0.03 | 0.33 | 0.25 | 95 | 1010.9 |
| 20260507101836 | 18 | 81 | 0.0 | 0.0 | 0.03 | 0.33 | 0.25 | 95 | 1011.0 |
| 20260507101635 | 18 | 81 | 0.0 | 0.0 | 0.03 | 0.33 | 0.25 | 95 | 1011.0 |
| 20260507101434 | 18 | 81 | 0.0 | 0.0 | 0.03 | 0.33 | 0.25 | 95 | 1011.0 |
| 20260507101233 | 18 | 81 | 0.0 | 0.0 | 0.03 | 0.33 | 0.25 | 95 | 1011.0 |
| 20260507101030 | 18 | 81 | 0.0 | 0.0 | 0.03 | 0.33 | 0.25 | 95 | 1010.9 |
| 20260507100829 | 18 | 81 | 0.0 | 0.0 | 0.03 | 0.33 | 0.25 | 95 | 1010.7 |
| 20260507100627 | 18 | 81 | 0.0 | 1.6 | 0.03 | 0.33 | 0.25 | 95 | 1010.8 |
| 20260507100425 | 18 | 81 | 0.0 | 1.6 | 0.03 | 0.33 | 0.25 | 95 | 1010.7 |
| 20260507100223 | 18 | 81 | 0.0 | 1.6 | 0.03 | 0.33 | 0.25 | 95 | 1010.8 |
| 20260507100025 | 18 | 81 | 0.0 | 1.6 | 0.03 | 0.33 | 0.25 | 95 | 1010.7 |
| 20260507095823 | 18 | 81 | 0.0 | 1.6 | 0.03 | 0.33 | 0.25 | 95 | 1010.8 |
| 20260507095623 | 18 | 81 | 0.0 | 1.6 | 0.00 | 0.30 | 0.23 | 95 | 1010.8 |
| 20260507095022 | 18 | 81 | 0.0 | 1.6 | 0.00 | 0.30 | 0.23 | 95 | 1011.0 |
| 20260507094823 | 18 | 81 | 0.0 | 1.6 | 0.00 | 0.30 | 0.23 | 95 | 1011.0 |
| 20260507094623 | 18 | 81 | 0.0 | 1.6 | 0.00 | 0.30 | 0.23 | 95 | 1010.9 |
| 20260507094420 | 18 | 81 | 0.0 | 1.6 | 0.00 | 0.30 | 0.23 | 95 | 1010.9 |
| 20260507094218 | 18 | 81 | 0.0 | 1.6 | 0.00 | 0.30 | 0.23 | 95 | 1010.9 |
| 20260507094016 | 18 | 81 | 0.0 | 1.6 | 0.00 | 0.30 | 0.23 | 95 | 1011.0 |
| 20260507093817 | 18 | 81 | 0.0 | 1.6 | 0.00 | 0.30 | 0.23 | 95 | 1010.9 |
| 20260507093412 | 18 | 81 | 0.0 | 1.6 | 0.00 | 0.30 | 0.23 | 95 | 1010.9 |
| 20260507093211 | 18 | 81 | 0.0 | 1.6 | 0.00 | 0.30 | 0.23 | 94 | 1010.7 |
| 20260507093010 | 18 | 81 | 0.0 | 1.6 | 0.00 | 0.30 | 0.23 | 95 | 1010.8 |
| 20260507092805 | 18 | 81 | 0.0 | 1.6 | 0.00 | 0.30 | 0.23 | 95 | 1010.8 |
| 20260507092202 | 18 | 81 | 0.0 | 1.6 | 0.00 | 0.30 | 0.23 | 94 | 1010.7 |
| 20260507092002 | 18 | 81 | 0.0 | 1.6 | 0.00 | 0.30 | 0.23 | 94 | 1010.7 |
| 20260507091800 | 18 | 81 | 0.0 | 1.6 | 0.00 | 0.30 | 0.23 | 94 | 1010.8 |
| 20260507091558 | 18 | 81 | 0.0 | 1.6 | 0.00 | 0.30 | 0.23 | 94 | 1010.7 |
| 20260507091357 | 18 | 81 | 0.0 | 1.6 | 0.00 | 0.30 | 0.23 | 94 | 1010.7 |
| 20260507091155 | 18 | 80 | 0.0 | 1.6 | 0.00 | 0.30 | 0.23 | 94 | 1010.8 |
| 20260507090954 | 18 | 80 | 0.0 | 0.0 | 0.00 | 0.30 | 0.23 | 94 | 1010.9 |
| 20260507090755 | 18 | 81 | 0.0 | 0.0 | 0.00 | 0.30 | 0.23 | 94 | 1010.8 |
| 20260507090555 | 18 | 81 | 0.0 | 0.0 | 0.00 | 0.30 | 0.23 | 94 | 1010.8 |
| 20260507085952 | 18 | 81 | 0.0 | 1.6 | 0.00 | 0.30 | 0.23 | 94 | 1010.8 |
| 20260507085348 | 18 | 80 | 0.0 | 0.0 | 0.00 | 0.30 | 0.23 | 94 | 1011.0 |
| 20260507085146 | 18 | 80 | 0.0 | 0.0 | 0.00 | 0.30 | 0.23 | 94 | 1011.0 |
| 20260507084745 | 18 | 81 | 0.0 | 0.0 | 0.00 | 0.30 | 0.23 | 94 | 1011.1 |
| 20260507084545 | 18 | 80 | 0.0 | 0.0 | 0.00 | 0.30 | 0.23 | 94 | 1011.0 |
| 20260507084346 | 18 | 80 | 0.0 | 0.0 | 0.00 | 0.30 | 0.23 | 94 | 1011.1 |
| 20260507084145 | 18 | 80 | 0.0 | 1.6 | 0.00 | 0.30 | 0.23 | 94 | 1011.0 |
| 20260507083945 | 18 | 80 | 0.0 | 3.2 | 0.00 | 0.30 | 0.23 | 94 | 1011.1 |
| 20260507083743 | 18 | 80 | 0.0 | 3.2 | 0.00 | 0.30 | 0.23 | 94 | 1011.1 |
| 20260507083342 | 18 | 80 | 0.0 | 4.8 | 0.00 | 0.30 | 0.23 | 94 | 1011.0 |
| 20260507083143 | 18 | 81 | 0.0 | 4.8 | 0.00 | 0.30 | 0.23 | 94 | 1011.1 |
| 20260507082942 | 18 | 81 | 0.0 | 4.8 | 0.00 | 0.30 | 0.23 | 94 | 1011.1 |
| 20260507082741 | 18 | 81 | 0.0 | 4.8 | 0.00 | 0.30 | 0.23 | 94 | 1011.0 |
| 20260507082541 | 18 | 47 | 0.0 | 1.6 | 0.00 | 0.30 | 0.23 | 94 | 1011.0 |
| 20260507082340 | 18 | 45 | 0.0 | 1.6 | 0.00 | 0.30 | 0.23 | 94 | 1011.1 |
| 20260507082139 | 18 | 44 | 0.0 | 3.2 | 0.00 | 0.30 | 0.23 | 94 | 1011.3 |
| 20260507081937 | 18 | 44 | 0.0 | 3.2 | 0.00 | 0.30 | 0.23 | 94 | 1011.3 |
| 20260507081738 | 18 | 44 | 0.0 | 3.2 | 0.00 | 0.30 | 0.23 | 94 | 1011.4 |
| 20260507081539 | 18 | 45 | 0.0 | 3.2 | 0.00 | 0.30 | 0.23 | 94 | 1011.4 |
| 20260507081340 | 18 | 45 | 0.0 | 3.2 | 0.00 | 0.30 | 0.23 | 94 | 1011.5 |
| 20260507081137 | 18 | 45 | 0.0 | 0.0 | 0.00 | 0.30 | 0.23 | 94 | 1011.5 |
| 20260507080940 | 18 | 45 | 0.0 | 0.0 | 0.00 | 0.30 | 0.23 | 94 | 1011.4 |
| 20260507080737 | 18 | 44 | 0.0 | 0.0 | 0.00 | 0.30 | 0.23 | 94 | 1011.4 |
| 20260507080339 | 18 | 45 | 0.0 | 0.0 | 0.00 | 0.30 | 0.23 | 94 | 1011.4 |
| 20260507080138 | 18 | 44 | 0.0 | 0.0 | 0.00 | 0.30 | 0.23 | 94 | 1011.4 |
| 20260507075937 | 18 | 44 | 0.0 | 0.0 | 0.00 | 0.30 | 0.23 | 94 | 1011.4 |
| 20260507075539 | 18 | 44 | 0.0 | 0.0 | 0.00 | 0.30 | 0.23 | 94 | 1011.4 |
| 20260507075339 | 18 | 44 | 0.0 | 0.0 | 0.00 | 0.30 | 0.23 | 94 | 1011.3 |
| 20260507075139 | 18 | 44 | 0.0 | 0.0 | 0.00 | 0.30 | 0.23 | 94 | 1011.2 |
| 20260507074938 | 18 | 45 | 0.0 | 0.0 | 0.00 | 0.30 | 0.23 | 94 | 1011.1 |
| 20260507074737 | 18 | 44 | 0.0 | 0.0 | 0.00 | 0.30 | 0.23 | 94 | 1011.1 |
| 20260507074538 | 18 | 45 | 0.0 | 0.0 | 0.00 | 0.30 | 0.23 | 94 | 1011.2 |
| 20260507074337 | 18 | 44 | 0.0 | 0.0 | 0.00 | 0.30 | 0.23 | 94 | 1011.1 |
| 20260507074138 | 18 | 44 | 0.0 | 0.0 | 0.00 | 0.30 | 0.23 | 94 | 1011.2 |
| 20260507073937 | 18 | 44 | 0.0 | 0.0 | 0.00 | 0.30 | 0.23 | 94 | 1011.3 |
| 20260507073539 | 18 | 44 | 0.0 | 0.0 | 0.00 | 0.30 | 0.23 | 94 | 1011.4 |
| 20260507073338 | 18 | 45 | 0.0 | 0.0 | 0.00 | 0.30 | 0.23 | 94 | 1011.4 |
| 20260507073138 | 18 | 44 | 0.0 | 0.0 | 0.00 | 0.30 | 0.23 | 94 | 1011.4 |
| 20260507072937 | 18 | 44 | 0.0 | 0.0 | 0.00 | 0.30 | 0.23 | 94 | 1011.4 |
| 20260507072737 | 18 | 45 | 0.0 | 0.0 | 0.00 | 0.30 | 0.23 | 94 | 1011.4 |
| 20260507072536 | 18 | 44 | 0.0 | 0.0 | 0.00 | 0.30 | 0.23 | 94 | 1011.6 |
| 20260507072336 | 18 | 44 | 0.0 | 0.0 | 0.00 | 0.30 | 0.23 | 94 | 1011.6 |
| 20260507072138 | 18 | 44 | 0.0 | 0.0 | 0.00 | 0.30 | 0.23 | 94 | 1011.7 |
| 20260507071937 | 18 | 45 | 0.0 | 0.0 | 0.00 | 0.30 | 0.23 | 94 | 1011.6 |
| 20260507071736 | 18 | 44 | 0.0 | 0.0 | 0.00 | 0.30 | 0.23 | 94 | 1011.6 |
| 20260507071536 | 18 | 45 | 0.0 | 0.0 | 0.00 | 0.30 | 0.23 | 94 | 1011.6 |
| 20260507071335 | 18 | 44 | 0.0 | 0.0 | 0.00 | 0.30 | 0.23 | 94 | 1011.8 |
| 20260507071136 | 18 | 44 | 0.0 | 0.0 | 0.00 | 0.30 | 0.23 | 94 | 1011.9 |
| 20260507070936 | 18 | 44 | 0.0 | 0.0 | 0.00 | 0.30 | 0.23 | 94 | 1011.8 |
| 20260507070537 | 18 | 44 | 0.0 | 0.0 | 0.00 | 0.30 | 0.23 | 94 | 1011.9 |
| 20260507070136 | 18 | 44 | 0.0 | 0.0 | 0.00 | 0.30 | 0.23 | 94 | 1011.9 |
| 20260507065936 | 18 | 44 | 0.0 | 0.0 | 0.00 | 0.30 | 0.23 | 94 | 1011.7 |
| 20260507065735 | 18 | 44 | 0.0 | 0.0 | 0.00 | 0.30 | 0.23 | 94 | 1011.8 |
| 20260507065335 | 18 | 44 | 0.0 | 0.0 | 0.00 | 0.30 | 0.23 | 94 | 1012.0 |
| 20260507064937 | 18 | 44 | 0.0 | 0.0 | 0.00 | 0.30 | 0.23 | 94 | 1012.0 |
| 20260507064536 | 18 | 44 | 0.0 | 0.0 | 0.00 | 0.30 | 0.23 | 94 | 1011.9 |
| 20260507064336 | 18 | 44 | 0.0 | 0.0 | 0.00 | 0.30 | 0.23 | 94 | 1011.7 |
| 20260507064135 | 18 | 44 | 0.0 | 0.0 | 0.00 | 0.30 | 0.23 | 94 | 1011.8 |
| 20260507063737 | 18 | 44 | 0.0 | 0.0 | 0.00 | 0.30 | 0.23 | 94 | 1012.3 |
| 20260507063538 | 18 | 44 | 0.0 | 0.0 | 0.00 | 0.30 | 0.23 | 94 | 1012.4 |
| 20260507063336 | 18 | 45 | 0.0 | 0.0 | 0.00 | 0.30 | 0.23 | 94 | 1012.5 |
| 20260507063136 | 18 | 44 | 0.0 | 0.0 | 0.00 | 0.30 | 0.23 | 94 | 1012.6 |
| 20260507062937 | 18 | 45 | 0.0 | 0.0 | 0.00 | 0.30 | 0.23 | 94 | 1012.8 |
| 20260507062735 | 18 | 44 | 0.0 | 0.0 | 0.00 | 0.30 | 0.23 | 94 | 1012.8 |
| 20260507062337 | 18 | 44 | 0.0 | 0.0 | 0.00 | 0.30 | 0.23 | 94 | 1012.8 |
| 20260507061935 | 18 | 44 | 0.0 | 0.0 | 0.00 | 0.30 | 0.23 | 94 | 1012.8 |
| 20260507061736 | 18 | 45 | 0.0 | 0.0 | 0.00 | 0.30 | 0.23 | 94 | 1012.8 |
| 20260507061337 | 18 | 44 | 0.0 | 0.0 | 0.00 | 0.30 | 0.23 | 94 | 1012.7 |
| 20260507061136 | 18 | 44 | 0.0 | 0.0 | 0.00 | 0.30 | 0.23 | 94 | 1012.7 |
| 20260507060937 | 18 | 44 | 0.0 | 0.0 | 0.00 | 0.30 | 0.23 | 94 | 1012.6 |
| 20260507060736 | 18 | 44 | 0.0 | 0.0 | 0.00 | 0.30 | 0.23 | 94 | 1012.5 |
| 20260507060535 | 18 | 45 | 0.0 | 0.0 | 0.00 | 0.30 | 0.23 | 94 | 1012.4 |
| 20260507060135 | 18 | 45 | 0.0 | 0.0 | 0.00 | 0.30 | 0.23 | 94 | 1012.0 |
| 20260507055737 | 18 | 44 | 0.0 | 0.0 | 0.00 | 0.30 | 0.23 | 94 | 1012.3 |
| 20260507055536 | 18 | 44 | 0.0 | 0.0 | 0.00 | 0.30 | 0.23 | 94 | 1012.4 |
| 20260507055337 | 18 | 44 | 0.0 | 0.0 | 0.00 | 0.30 | 0.23 | 94 | 1012.5 |
| 20260507055137 | 18 | 45 | 0.0 | 0.0 | 0.03 | 0.30 | 0.23 | 94 | 1012.5 |
| 20260507054935 | 18 | 44 | 0.0 | 0.0 | 0.03 | 0.30 | 0.23 | 94 | 1012.5 |
| 20260507054736 | 18 | 44 | 0.0 | 0.0 | 0.03 | 0.30 | 0.23 | 94 | 1012.5 |
| 20260507054536 | 18 | 44 | 0.0 | 0.0 | 0.03 | 0.30 | 0.23 | 94 | 1012.6 |
| 20260507054336 | 18 | 45 | 0.0 | 0.0 | 0.05 | 0.30 | 0.23 | 94 | 1012.7 |
| 20260507054136 | 18 | 45 | 0.0 | 0.0 | 0.05 | 0.30 | 0.23 | 94 | 1012.6 |
| 20260507053935 | 18 | 44 | 0.0 | 0.0 | 0.08 | 0.30 | 0.23 | 94 | 1012.5 |
| 20260507053735 | 18 | 45 | 0.0 | 0.0 | 0.08 | 0.30 | 0.23 | 94 | 1012.6 |
| 20260507053336 | 18 | 44 | 0.0 | 0.0 | 0.08 | 0.30 | 0.23 | 94 | 1012.6 |
| 20260507053135 | 18 | 45 | 0.0 | 0.0 | 0.08 | 0.30 | 0.23 | 94 | 1012.5 |
| 20260507052935 | 18 | 45 | 0.0 | 0.0 | 0.10 | 0.30 | 0.23 | 94 | 1012.5 |
| 20260507052735 | 18 | 44 | 0.0 | 0.0 | 0.10 | 0.30 | 0.23 | 94 | 1012.4 |
| 20260507052536 | 18 | 44 | 0.0 | 0.0 | 0.10 | 0.30 | 0.23 | 94 | 1012.4 |
| 20260507052336 | 18 | 44 | 0.0 | 1.6 | 0.10 | 0.30 | 0.23 | 94 | 1012.4 |
| 20260507052137 | 18 | 44 | 0.0 | 1.6 | 0.10 | 0.30 | 0.23 | 94 | 1012.4 |
| 20260507051535 | 18 | 45 | 0.0 | 3.2 | 0.18 | 0.30 | 0.23 | 94 | 1012.5 |
| 20260507051336 | 18 | 44 | 0.0 | 4.8 | 0.18 | 0.30 | 0.23 | 94 | 1012.6 |
| 20260507051136 | 18 | 44 | 1.6 | 4.8 | 0.18 | 0.30 | 0.23 | 94 | 1012.6 |
| 20260507050936 | 18 | 44 | 1.6 | 4.8 | 0.18 | 0.30 | 0.23 | 94 | 1012.7 |
| 20260507050735 | 18 | 44 | 1.6 | 6.4 | 0.20 | 0.30 | 0.23 | 93 | 1013.1 |
| 20260507050536 | 18 | 44 | 1.6 | 6.4 | 0.20 | 0.30 | 0.23 | 93 | 1013.4 |
| 20260507050336 | 18 | 37 | 1.6 | 6.4 | 0.23 | 0.30 | 0.23 | 93 | 1013.5 |
| 20260507050136 | 18 | 309 | 0.0 | 6.4 | 0.23 | 0.30 | 0.23 | 93 | 1013.4 |
| 20260507045935 | 18 | 306 | 0.0 | 6.4 | 0.23 | 0.30 | 0.23 | 93 | 1012.7 |
| 20260507045735 | 18 | 51 | 0.0 | 0.0 | 0.23 | 0.30 | 0.23 | 93 | 1011.7 |
| 20260507045537 | 18 | 52 | 0.0 | 0.0 | 0.23 | 0.30 | 0.23 | 93 | 1012.0 |
| 20260507045336 | 18 | 5 | 0.0 | 0.0 | 0.23 | 0.30 | 0.23 | 93 | 1012.6 |
| 20260507045136 | 18 | 355 | 0.0 | 0.0 | 0.20 | 0.28 | 0.20 | 93 | 1013.0 |
| 20260507044934 | 18 | 355 | 0.0 | 0.0 | 0.20 | 0.28 | 0.20 | 93 | 1012.9 |